Time,TemperatureF,DewpointF,PressureIn,WindDirection,WindDirectionDegrees,WindSpeedMPH,WindSpeedGustMPH,Humidity,HourlyPrecipIn,Conditions,Clouds,dailyrainin,SolarRadiationWatts/m^2,SoftwareType,DateUTC
2013-09-30 00:02:00,59.0,46.0,-100.00,SSE,165,4.0,12.0,63,0.00,,,0.01,0.000000,,2013-09-30 05:02:00,
2013-09-30 00:43:00,58.0,46.0,-100.00,South,178,4.0,8.0,65,0.00,,,0.01,0.000000,,2013-09-30 05:43:00,
2013-09-30 00:52:00,58.0,46.0,-100.00,South,178,4.0,8.0,65,0.00,,,0.01,0.000000,,2013-09-30 05:52:00,
2013-09-30 01:03:00,58.0,46.0,-100.00,South,178,4.0,8.0,65,0.00,,,0.01,0.000000,,2013-09-30 06:03:00,
2013-09-30 01:42:00,58.0,46.0,-100.00,South,174,5.0,11.0,64,0.00,,,0.01,0.000000,,2013-09-30 06:42:00,
2013-09-30 01:52:00,58.0,46.0,-100.00,South,174,5.0,11.0,64,0.00,,,0.01,0.000000,,2013-09-30 06:52:00,
2013-09-30 02:01:00,58.0,46.0,-100.00,South,174,5.0,11.0,64,0.00,,,0.01,0.000000,,2013-09-30 07:01:00,
2013-09-30 02:42:00,58.0,45.0,-100.00,South,182,7.0,17.0,63,0.00,,,0.01,0.000000,,2013-09-30 07:42:00,
2013-09-30 02:53:00,58.0,45.0,-100.00,South,182,7.0,17.0,63,0.00,,,0.01,0.000000,,2013-09-30 07:53:00,
2013-09-30 03:02:00,58.0,45.0,-100.00,South,182,7.0,17.0,63,0.00,,,0.01,0.000000,,2013-09-30 08:02:00,
2013-09-30 03:42:00,57.0,45.0,-100.00,South,171,6.0,11.0,64,0.00,,,0.00,0.000000,,2013-09-30 08:42:00,
2013-09-30 03:52:00,57.0,45.0,-100.00,South,171,6.0,11.0,64,0.00,,,0.00,0.000000,,2013-09-30 08:52:00,
2013-09-30 04:02:00,57.0,45.0,-100.00,South,171,6.0,11.0,64,0.00,,,0.00,0.000000,,2013-09-30 09:02:00,
2013-09-30 04:42:00,56.0,45.0,-100.00,South,173,6.0,12.0,66,0.00,,,0.00,0.000000,,2013-09-30 09:42:00,
2013-09-30 04:54:00,56.0,45.0,-100.00,South,173,6.0,12.0,66,0.00,,,0.00,0.000000,,2013-09-30 09:54:00,
2013-09-30 05:03:00,56.0,45.0,-100.00,South,173,6.0,12.0,66,0.00,,,0.00,0.000000,,2013-09-30 10:03:00,
2013-09-30 05:43:00,57.0,45.0,-100.00,SSE,164,5.0,12.0,64,0.00,,,0.00,0.000000,,2013-09-30 10:43:00,
2013-09-30 05:53:00,57.0,45.0,-100.00,SSE,164,5.0,12.0,64,0.00,,,0.00,0.000000,,2013-09-30 10:53:00,
2013-09-30 06:03:00,57.0,45.0,-100.00,SSE,164,5.0,12.0,64,0.00,,,0.00,0.000000,,2013-09-30 11:03:00,
2013-09-30 06:43:00,56.0,44.0,-100.00,South,179,7.0,14.0,64,0.00,,,0.00,0.000000,,2013-09-30 11:43:00,
2013-09-30 06:52:00,56.0,44.0,-100.00,South,179,7.0,14.0,64,0.00,,,0.00,0.000000,,2013-09-30 11:52:00,
2013-09-30 07:02:00,56.0,44.0,-100.00,South,179,7.0,14.0,64,0.00,,,0.00,0.000000,,2013-09-30 12:02:00,
2013-09-30 07:42:00,55.0,44.0,-100.00,SSE,165,6.0,13.0,67,0.00,,,0.00,1.000000,,2013-09-30 12:42:00,
2013-09-30 07:52:00,55.0,44.0,-100.00,SSE,165,6.0,13.0,67,0.00,,,0.00,1.000000,,2013-09-30 12:52:00,
2013-09-30 08:01:00,55.0,44.0,-100.00,SSE,165,6.0,13.0,67,0.00,,,0.00,1.000000,,2013-09-30 13:01:00,
2013-09-30 08:42:00,58.0,45.0,-100.00,SSE,166,7.0,13.0,63,0.00,,,0.00,39.000000,,2013-09-30 13:42:00,
2013-09-30 08:52:00,58.0,45.0,-100.00,SSE,166,7.0,13.0,63,0.00,,,0.00,39.000000,,2013-09-30 13:52:00,
2013-09-30 09:02:00,58.0,45.0,-100.00,SSE,166,7.0,13.0,63,0.00,,,0.00,39.000000,,2013-09-30 14:02:00,
2013-09-30 09:42:00,61.0,46.0,-100.00,South,178,8.0,16.0,57,0.00,,,0.00,208.000000,,2013-09-30 14:42:00,
2013-09-30 09:53:00,61.0,46.0,-100.00,South,178,8.0,16.0,57,0.00,,,0.00,208.000000,,2013-09-30 14:53:00,
2013-09-30 10:02:00,61.0,46.0,-100.00,South,178,8.0,16.0,57,0.00,,,0.00,208.000000,,2013-09-30 15:02:00,
2013-09-30 10:45:00,64.0,48.0,-100.00,South,188,9.0,17.0,56,0.00,,,0.00,313.000000,,2013-09-30 15:45:00,
2013-09-30 10:54:00,64.0,48.0,-100.00,South,188,9.0,17.0,56,0.00,,,0.00,313.000000,,2013-09-30 15:54:00,
2013-09-30 11:04:00,64.0,48.0,-100.00,South,188,9.0,17.0,56,0.00,,,0.00,313.000000,,2013-09-30 16:04:00,
2013-09-30 11:44:00,67.0,49.0,-100.00,South,179,9.0,24.0,53,0.00,,,0.00,431.000000,,2013-09-30 16:44:00,
2013-09-30 11:53:00,67.0,49.0,-100.00,South,179,9.0,24.0,53,0.00,,,0.00,431.000000,,2013-09-30 16:53:00,
2013-09-30 12:03:00,67.0,49.0,-100.00,South,179,9.0,24.0,53,0.00,,,0.00,431.000000,,2013-09-30 17:03:00,
2013-09-30 12:43:00,69.0,50.0,-100.00,South,181,11.0,26.0,50,0.00,,,0.00,492.000000,,2013-09-30 17:43:00,
2013-09-30 12:53:00,69.0,50.0,-100.00,South,181,11.0,26.0,50,0.00,,,0.00,492.000000,,2013-09-30 17:53:00,
2013-09-30 13:02:00,69.0,50.0,-100.00,South,181,11.0,26.0,50,0.00,,,0.00,492.000000,,2013-09-30 18:02:00,
2013-09-30 13:42:00,70.0,48.0,-100.00,South,175,12.0,26.0,46,0.00,,,0.00,630.000000,,2013-09-30 18:42:00,
2013-09-30 13:53:00,70.0,48.0,-100.00,South,175,12.0,26.0,46,0.00,,,0.00,630.000000,,2013-09-30 18:53:00,
2013-09-30 14:02:00,70.0,48.0,-100.00,South,175,12.0,26.0,46,0.00,,,0.00,630.000000,,2013-09-30 19:02:00,
2013-09-30 14:42:00,71.0,48.0,-100.00,South,178,12.0,28.0,44,0.00,,,0.00,638.000000,,2013-09-30 19:42:00,
2013-09-30 14:53:00,71.0,48.0,-100.00,South,178,12.0,28.0,44,0.00,,,0.00,638.000000,,2013-09-30 19:53:00,
2013-09-30 15:02:00,71.0,48.0,-100.00,South,178,12.0,28.0,44,0.00,,,0.00,638.000000,,2013-09-30 20:02:00,
2013-09-30 15:43:00,72.0,47.0,-100.00,South,181,11.0,22.0,41,0.00,,,0.00,506.000000,,2013-09-30 20:43:00,
2013-09-30 15:53:00,72.0,47.0,-100.00,South,181,11.0,22.0,41,0.00,,,0.00,506.000000,,2013-09-30 20:53:00,
2013-09-30 16:02:00,72.0,47.0,-100.00,South,181,11.0,22.0,41,0.00,,,0.00,506.000000,,2013-09-30 21:02:00,
2013-09-30 16:44:00,73.0,46.0,-100.00,South,181,11.0,22.0,38,0.00,,,0.00,490.000000,,2013-09-30 21:44:00,
2013-09-30 16:54:00,73.0,46.0,-100.00,South,181,11.0,22.0,38,0.00,,,0.00,490.000000,,2013-09-30 21:54:00,
2013-09-30 17:03:00,73.0,46.0,-100.00,South,181,11.0,22.0,38,0.00,,,0.00,490.000000,,2013-09-30 22:03:00,
2013-09-30 17:44:00,72.0,46.0,-100.00,South,180,8.0,22.0,40,0.00,,,-99.99,350.000000,,2013-09-30 22:44:00,
2013-09-30 17:54:00,72.0,46.0,-100.00,South,180,8.0,22.0,40,0.00,,,-99.99,350.000000,,2013-09-30 22:54:00,
2013-09-30 18:03:00,72.0,46.0,-100.00,South,180,8.0,22.0,40,0.00,,,-99.99,350.000000,,2013-09-30 23:03:00,
2013-09-30 18:43:00,71.0,47.0,-100.00,South,180,7.0,20.0,42,0.00,,,0.00,181.000000,,2013-09-30 23:43:00,
2013-09-30 18:54:00,71.0,47.0,-100.00,South,180,7.0,20.0,42,0.00,,,0.00,181.000000,,2013-09-30 23:54:00,
2013-09-30 19:03:00,71.0,47.0,-100.00,South,180,7.0,20.0,42,0.00,,,0.00,181.000000,,2013-10-01 00:03:00,
2013-09-30 19:43:00,66.0,46.0,-100.00,South,169,4.0,11.0,49,0.00,,,0.00,13.000000,,2013-10-01 00:43:00,
2013-09-30 19:52:00,66.0,46.0,-100.00,South,169,4.0,11.0,49,0.00,,,0.00,13.000000,,2013-10-01 00:52:00,
2013-09-30 20:03:00,66.0,46.0,-100.00,South,169,4.0,11.0,49,0.00,,,0.00,13.000000,,2013-10-01 01:03:00,
2013-09-30 20:42:00,62.0,48.0,-100.00,SSE,155,4.0,9.0,60,0.00,,,0.00,0.000000,,2013-10-01 01:42:00,
2013-09-30 20:52:00,62.0,48.0,-100.00,SSE,155,4.0,9.0,60,0.00,,,0.00,0.000000,,2013-10-01 01:52:00,
2013-09-30 21:02:00,62.0,48.0,-100.00,SSE,155,4.0,9.0,60,0.00,,,0.00,0.000000,,2013-10-01 02:02:00,
2013-09-30 21:43:00,61.0,48.0,-100.00,SSE,161,4.0,9.0,62,0.00,,,0.00,0.000000,,2013-10-01 02:43:00,
2013-09-30 21:52:00,61.0,48.0,-100.00,SSE,161,4.0,9.0,62,0.00,,,0.00,0.000000,,2013-10-01 02:52:00,
2013-09-30 22:03:00,61.0,48.0,-100.00,SSE,161,4.0,9.0,62,0.00,,,0.00,0.000000,,2013-10-01 03:03:00,
2013-09-30 22:44:00,60.0,48.0,-100.00,SSE,162,2.0,8.0,65,0.00,,,0.00,0.000000,,2013-10-01 03:44:00,
2013-09-30 22:55:00,60.0,48.0,-100.00,SSE,162,2.0,8.0,65,0.00,,,0.00,0.000000,,2013-10-01 03:55:00,
2013-09-30 23:04:00,60.0,48.0,-100.00,SSE,162,2.0,8.0,65,0.00,,,0.00,0.000000,,2013-10-01 04:04:00,